Weather History for Western Head, NS

Change the Weather History Date:

Tuesday, October 16, 2012

  Actual Average Record
Temperature  
Mean Temperature 54 °F -  
Max Temperature 59 °F - - ()
Min Temperature 48 °F - - ()
Degree Days  
Heating Degree Days 12    
Growing Degree Days 4 (Base 50)    
Moisture  
Dew Point 55 °F    
Average Humidity 97    
Maximum Humidity 100    
Minimum Humidity 83    
Precipitation  
Precipitation 0.08 in - - ()
Sea Level Pressure  
Sea Level Pressure 29.61 in    
Wind  
Wind Speed 10 mph ()    
Max Wind Speed 20 mph    
Max Gust Speed 24 mph    
T = Trace of Precipitation, MM = Missing Value Source: Averaged Metar Reports

Daily Weather History Graph

Daily Weather History Graph

Search for Another Location

Airport:

Trip Planner

Search our weather history database for the weather conditions in past years. The results will help you decide how hot, cold, wet, or windy it might be!

Date:

Astronomy

Oct. 16, 2012 Rise Set
Actual Time 7:35 AM ADT 6:32 PM ADT
Civil Twilight 7:05 AM ADT 7:01 PM ADT
Nautical Twilight 6:32 AM ADT 7:35 PM ADT
Astronomical Twilight 5:58 AM ADT 8:08 PM ADT
Moon 8:57 AM ADT 7:08 PM ADT
Length of Visible Light 11h 55m
Length of Day
10h 57m
New Moon, 2% of the Moon is Illuminated
Oct 16
New Moon
Oct 22
First Quarter
Oct 29
Full
Nov 6
Last Quarter
Nov 13
New

Hourly Weather History & Observations

Time (ADT) Temp. Dew Point Humidity Pressure Visibility Wind Dir Wind Speed Gust Speed Precip Events Conditions
12:00 AM 58 °F 58 °F 98% 29.82 in - SW 10.4 mph - -  
12:00 AM 57.9 °F 57.6 °F 99% 29.82 in - SW 10.4 mph 18.4 mph N/A   Unknown
1:00 AM 57.4 °F 57.2 °F 99% 29.79 in - SW 8.1 mph - N/A   Unknown
2:00 AM 57.2 °F 57.0 °F 99% 29.77 in - SW 9.2 mph - N/A   Unknown
3:00 AM 59 °F 58 °F 97% 29.74 in - WSW 6.9 mph - -  
3:00 AM 58.6 °F 58.5 °F 99% 29.74 in - WSW 6.9 mph - N/A   Unknown
4:00 AM 58.5 °F 58.5 °F 100% 29.70 in - SW 10.4 mph - N/A   Unknown
5:00 AM 57.2 °F 57.2 °F 100% 29.70 in - WSW 8.1 mph - 0.03 in   Unknown
6:00 AM 56 °F 56 °F 100% 29.67 in - South 10.4 mph - -  
6:00 AM 56.1 °F 56.1 °F 100% 29.67 in - South 10.4 mph - N/A   Unknown
7:00 AM 58.5 °F 58.5 °F 100% 29.62 in - SSW 1.2 mph - N/A   Unknown
8:00 AM 55.6 °F 55.6 °F 100% 29.63 in - South 9.2 mph - 0.05 in   Unknown
9:00 AM 56 °F 56 °F 100% 29.60 in - SSE 19.6 mph - -  
9:00 AM 56.5 °F 56.5 °F 100% 29.60 in - SSE 19.6 mph - N/A   Unknown
11:00 AM 57.4 °F 57.4 °F 100% 29.53 in - SSE 17.3 mph - N/A   Unknown
12:00 PM 57 °F 57 °F 100% 29.50 in - SSE 15.0 mph - -  
12:00 PM 57.4 °F 57.4 °F 100% 29.50 in - SSE 15.0 mph - N/A   Unknown
1:00 PM 57.9 °F 57.9 °F 100% 29.47 in - South 19.6 mph - N/A   Unknown
2:00 PM 56.1 °F 56.1 °F 100% 29.44 in - SSW 13.8 mph - 0.02 in   Unknown
3:00 PM 56 °F 56 °F 99% 29.43 in - SSW 18.4 mph - -  
3:00 PM 55.9 °F 55.8 °F 99% 29.43 in - SSW 18.4 mph - N/A   Unknown
4:00 PM 54.1 °F 54.0 °F 99% 29.43 in - SSW 15.0 mph - N/A   Unknown
5:00 PM 55.8 °F 55.6 °F 99% 29.45 in - SW 15.0 mph - N/A   Unknown
6:00 PM 57 °F 53 °F 83% 29.49 in - WSW 17.3 mph - -  
6:00 PM 57.0 °F 53.2 °F 87% 29.49 in - WSW 17.3 mph 24.2 mph N/A   Unknown
7:00 PM 55.2 °F 52.3 °F 90% 29.53 in - West 11.5 mph 18.4 mph N/A   Unknown
8:00 PM 50.7 °F 48.4 °F 92% 29.60 in - West 9.2 mph - N/A   Unknown
9:00 PM 49 °F 47 °F 90% 29.63 in - West 6.9 mph - -  
9:00 PM 48.9 °F 46.9 °F 93% 29.63 in - West 6.9 mph - N/A   Unknown
10:00 PM 50.2 °F 47.7 °F 91% 29.66 in - West 6.9 mph - N/A   Unknown
11:00 PM 49.5 °F 46.4 °F 89% 29.70 in - West 8.1 mph - N/A   Unknown